Datum Uhrzeit Temperatur Luft Windgeschw. Regen Regen (1h) Temp (1h) Luftdruck Windrichtung Taupunkt Sensor
2021-06-21 08:55:00 13.4 84.0 10.0 0.6 0.0 -0.4 N 0.0 Kombisensor
2021-06-21 08:50:00 13.5 83.0 24.4 0.6 0.0 -0.3 N 0.0 Kombisensor
2021-06-21 08:45:00 13.6 82.0 17.3 0.6 0.0 -0.2 NNO 0.0 Kombisensor
2021-06-21 08:40:00 13.7 82.0 9.6 0.6 0.0 -0.1 NO 0.0 Kombisensor
2021-06-21 08:35:00 13.7 81.0 16.9 0.6 0.0 0.0 NO 0.0 Kombisensor
2021-06-21 08:30:00 13.7 81.0 13.1 0.6 0.0 0.0 N 0.0 Kombisensor
2021-06-21 08:25:00 13.7 81.0 10.1 0.6 0.0 0.0 NNO 0.0 Kombisensor
2021-06-21 08:20:00 13.7 81.0 11.0 0.6 0.0 0.0 NO 0.0 Kombisensor
2021-06-21 08:15:00 13.7 80.0 11.4 0.6 0.0 0.1 NNO 0.0 Kombisensor
2021-06-21 08:10:00 13.7 80.0 12.0 0.6 0.0 0.1 NNO 0.0 Kombisensor
2021-06-21 08:05:00 13.8 80.0 12.4 0.6 0.0 0.2 NO 0.0 Kombisensor
2021-06-21 08:00:00 13.8 80.0 12.1 0.6 0.0 0.3 NNO 0.0 Kombisensor
2021-06-21 07:55:00 13.8 80.0 9.3 0.6 0.0 0.3 NNO 0.0 Kombisensor
2021-06-21 07:50:00 13.8 79.0 11.3 0.6 0.0 0.2 N 0.0 Kombisensor
2021-06-21 07:45:00 13.8 79.0 12.4 0.6 0.0 0.3 NNO 0.0 Kombisensor
2021-06-21 07:40:00 13.8 79.0 14.7 0.6 0.0 0.3 NNO 0.0 Kombisensor
2021-06-21 07:35:00 13.7 79.0 13.9 0.6 0.0 0.2 NO 0.0 Kombisensor
2021-06-21 07:30:00 13.7 79.0 14.4 0.6 0.0 0.2 NO 0.0 Kombisensor
2021-06-21 07:25:00 13.7 79.0 10.8 0.6 0.0 0.2 N 0.0 Kombisensor
2021-06-21 07:20:00 13.7 79.0 14.4 0.6 0.0 0.3 N 0.0 Kombisensor
2021-06-21 07:15:00 13.6 79.0 15.6 0.6 0.0 0.2 NNO 0.0 Kombisensor
2021-06-21 07:10:00 13.6 80.0 12.9 0.6 0.0 0.2 N 0.0 Kombisensor
2021-06-21 07:05:00 13.6 80.0 10.4 0.6 0.0 0.2 N 0.0 Kombisensor
2021-06-21 07:00:00 13.5 81.0 14.8 0.6 0.0 0.1 N 0.0 Kombisensor
2021-06-21 06:55:00 13.5 80.0 6.2 0.6 0.0 0.1 NNW 0.0 Kombisensor
2021-06-21 06:50:00 13.6 80.0 9.4 0.6 0.0 0.3 NNO 0.0 Kombisensor
2021-06-21 06:45:00 13.5 80.0 12.6 0.6 0.0 0.2 N 0.0 Kombisensor
2021-06-21 06:40:00 13.5 81.0 14.6 0.6 0.0 0.2 N 0.0 Kombisensor
2021-06-21 06:35:00 13.5 81.0 10.7 0.6 0.0 0.3 NO 0.0 Kombisensor
2021-06-21 06:30:00 13.5 82.0 8.5 0.6 0.0 0.3 NNO 0.0 Kombisensor
2021-06-21 06:25:00 13.5 82.0 7.4 0.6 0.0 0.4 N 0.0 Kombisensor
2021-06-21 06:20:00 13.4 82.0 9.8 0.6 0.0 0.2 NO 0.0 Kombisensor
2021-06-21 06:15:00 13.4 82.0 9.8 0.6 0.0 0.2 N 0.0 Kombisensor
2021-06-21 06:10:00 13.4 82.0 7.8 0.6 0.0 0.1 NW 0.0 Kombisensor
2021-06-21 06:05:00 13.4 82.0 9.5 0.6 0.0 0.1 NNW 0.0 Kombisensor
2021-06-21 06:00:00 13.4 82.0 9.5 0.6 0.0 0.1 N 0.0 Kombisensor
2021-06-21 05:55:00 13.4 82.0 12.0 0.6 0.0 0.1 N 0.0 Kombisensor
2021-06-21 05:50:00 13.3 82.0 8.6 0.6 0.0 0.0 NNO 0.0 Kombisensor
2021-06-21 05:45:00 13.3 82.0 7.7 0.6 0.0 0.0 NNW 0.0 Kombisensor
2021-06-21 05:40:00 13.3 82.0 7.8 0.6 0.0 0.0 NW 0.0 Kombisensor
2021-06-21 05:35:00 13.2 82.0 6.2 0.6 0.0 -0.2 NW 0.0 Kombisensor
2021-06-21 05:30:00 13.2 82.0 5.6 0.6 0.0 -0.1 NNW 0.0 Kombisensor
2021-06-21 05:25:00 13.1 82.0 4.0 0.6 0.0 -0.2 NNW 0.0 Kombisensor
2021-06-21 05:20:00 13.2 82.0 0.0 0.6 0.0 -0.1 NNW 0.0 Kombisensor
2021-06-21 05:15:00 13.2 82.0 6.6 0.6 0.0 -0.1 N 0.0 Kombisensor
2021-06-21 05:10:00 13.3 82.0 6.1 0.6 0.0 0.0 NNW 0.0 Kombisensor
2021-06-21 05:05:00 13.3 82.0 7.3 0.6 0.0 0.1 N 0.0 Kombisensor
2021-06-21 05:00:00 13.3 82.0 8.1 0.6 0.0 0.1 NNO 0.0 Kombisensor
2021-06-21 04:55:00 13.3 82.0 6.1 0.6 0.0 0.1 NNO 0.0 Kombisensor
2021-06-21 04:50:00 13.3 83.0 7.7 0.6 0.0 0.0 NNW 0.0 Kombisensor
2021-06-21 04:45:00 13.3 82.0 7.1 0.6 0.0 0.0 N 0.0 Kombisensor
2021-06-21 04:40:00 13.3 83.0 9.3 0.6 0.0 0.0 N 0.0 Kombisensor
2021-06-21 04:35:00 13.4 82.0 5.1 0.6 0.0 0.1 NNO 0.0 Kombisensor
2021-06-21 04:30:00 13.3 83.0 6.4 0.6 0.0 0.0 NO 0.0 Kombisensor
2021-06-21 04:25:00 13.3 83.0 6.4 0.6 0.0 0.0 NO 0.0 Kombisensor
2021-06-21 04:20:00 13.3 82.0 5.0 0.6 0.0 -0.1 ONO 0.0 Kombisensor
2021-06-21 04:15:00 13.3 82.0 8.1 0.6 0.0 -0.1 NNW 0.0 Kombisensor
2021-06-21 04:10:00 13.3 82.0 13.4 0.6 0.0 -0.1 WNW 0.0 Kombisensor
2021-06-21 04:05:00 13.2 82.0 10.3 0.6 0.0 -0.3 WNW 0.0 Kombisensor
2021-06-21 04:00:00 13.2 83.0 6.7 0.6 0.0 -0.3 NNW 0.0 Kombisensor
2021-06-21 03:55:00 13.2 83.0 0.0 0.6 0.0 -0.4 NNW 0.0 Kombisensor
2021-06-21 03:50:00 13.3 83.0 0.0 0.6 0.0 -0.3 NNW 0.0 Kombisensor
2021-06-21 03:45:00 13.3 83.0 10.5 0.6 0.0 -0.3 NW 0.0 Kombisensor
2021-06-21 03:40:00 13.3 83.0 5.1 0.6 0.0 -0.3 NW 0.0 Kombisensor
2021-06-21 03:35:00 13.3 83.0 8.8 0.6 0.0 -0.3 N 0.0 Kombisensor
2021-06-21 03:30:00 13.3 83.0 0.0 0.6 0.0 -0.4 N 0.0 Kombisensor
2021-06-21 03:25:00 13.3 83.0 6.4 0.6 0.0 -0.4 NW 0.0 Kombisensor
2021-06-21 03:20:00 13.4 83.0 6.4 0.6 0.0 -0.3 NW 0.0 Kombisensor
2021-06-21 03:15:00 13.4 83.0 6.2 0.6 0.0 -0.3 NW 0.0 Kombisensor
2021-06-21 03:10:00 13.4 82.0 8.0 0.6 0.0 -0.3 NW 0.0 Kombisensor
2021-06-21 03:05:00 13.5 83.0 8.4 0.6 0.0 -0.2 NNW 0.0 Kombisensor
2021-06-21 03:00:00 13.5 83.0 9.9 0.6 0.0 -0.2 N 0.0 Kombisensor
2021-06-21 02:55:00 13.6 83.0 10.6 0.6 0.0 -0.1 NW 0.0 Kombisensor
2021-06-21 02:50:00 13.6 83.0 6.4 0.6 0.0 -0.1 NW 0.0 Kombisensor
2021-06-21 02:45:00 13.6 83.0 8.4 0.6 0.0 -0.1 NW 0.0 Kombisensor
2021-06-21 02:40:00 13.6 83.0 9.4 0.6 0.0 -0.1 NW 0.0 Kombisensor
2021-06-21 02:35:00 13.6 83.0 9.9 0.6 0.0 -0.2 NW 0.0 Kombisensor
2021-06-21 02:30:00 13.7 83.0 5.7 0.6 0.0 -0.1 NNW 0.0 Kombisensor
2021-06-21 02:25:00 13.7 83.0 8.8 0.6 0.0 -0.1 NW 0.0 Kombisensor
2021-06-21 02:20:00 13.7 83.0 5.1 0.6 0.0 -0.1 NW 0.0 Kombisensor
2021-06-21 02:15:00 13.7 83.0 6.7 0.6 0.0 -0.1 NW 0.0 Kombisensor
2021-06-21 02:10:00 13.7 83.0 6.7 0.6 0.0 -0.1 WNW 0.0 Kombisensor
2021-06-21 02:05:00 13.7 84.0 8.5 0.6 0.0 -0.1 NNW 0.0 Kombisensor
2021-06-21 02:00:00 13.7 84.0 0.0 0.6 0.0 -0.1 WNW 0.0 Kombisensor
2021-06-21 01:55:00 13.7 84.0 0.0 0.6 0.0 -0.1 NNW 0.0 Kombisensor
2021-06-21 01:50:00 13.7 84.0 0.0 0.6 0.0 -0.1 NNW 0.0 Kombisensor
2021-06-21 01:45:00 13.7 83.0 6.1 0.6 0.0 -0.1 NNW 0.0 Kombisensor
2021-06-21 01:40:00 13.7 83.0 4.6 0.6 0.0 -0.1 NNW 0.0 Kombisensor
2021-06-21 01:35:00 13.8 84.0 6.7 0.6 0.0 0.0 NNW 0.0 Kombisensor
2021-06-21 01:30:00 13.8 84.0 8.2 0.6 0.0 0.1 NW 0.0 Kombisensor
2021-06-21 01:25:00 13.8 84.0 5.4 0.6 0.0 0.2 NW 0.0 Kombisensor
2021-06-21 01:20:00 13.8 83.0 5.0 0.6 0.0 0.2 NW 0.0 Kombisensor
2021-06-21 01:15:00 13.8 83.0 7.3 0.6 0.0 0.3 WNW 0.0 Kombisensor
2021-06-21 01:10:00 13.8 83.0 8.3 0.6 0.0 0.4 NW 0.0 Kombisensor
2021-06-21 01:05:00 13.8 83.0 9.6 0.6 0.0 0.4 NW 0.0 Kombisensor
2021-06-21 01:00:00 13.8 83.0 6.1 0.6 0.0 0.5 NW 0.0 Kombisensor
2021-06-21 00:55:00 13.8 83.0 6.9 0.6 0.0 0.0 NW 0.0 Kombisensor
2021-06-21 00:50:00 13.8 83.0 0.0 0.6 0.0 0.0 NW 0.0 Kombisensor
2021-06-21 00:45:00 13.8 83.0 4.3 0.6 0.0 0.0 SW 0.0 Kombisensor
2021-06-21 00:40:00 13.8 83.0 5.7 0.6 0.0 0.0 NW 0.0 Kombisensor
2021-06-21 00:35:00 13.8 83.0 7.5 0.6 0.0 0.1 NNW 0.0 Kombisensor
2021-06-21 00:30:00 13.7 83.0 9.0 0.6 0.0 0.1 WNW 0.0 Kombisensor
2021-06-21 00:25:00 13.6 83.0 8.0 0.6 0.0 0.0 WNW 0.0 Kombisensor
2021-06-21 00:20:00 13.6 83.0 7.9 0.6 0.0 0.1 WNW 0.0 Kombisensor
2021-06-21 00:15:00 13.5 83.0 7.1 0.6 0.0 0.1 W 0.0 Kombisensor
2021-06-21 00:10:00 13.4 84.0 4.8 0.6 0.0 0.0 NW 0.0 Kombisensor
2021-06-21 00:05:00 13.4 84.0 8.5 0.6 0.0 0.1 WNW 0.0 Kombisensor
2021-06-21 00:00:00 13.3 84.0 5.6 0.6 0.0 -0.6 NW 0.0 Kombisensor